[[{"header":{"parameterUnit":"m.s-1","parameterCategory":1,"la1":30.2991,"la2":30.254,"lo1":-89.0895,"lo2":-89.0444,"dy":0.0017,"dx":0.0017,"nx":28,"ny":28,"refTime":"2023-09-14T03:00:00:Z","depth":0,"parameterNumber":2,"parameterNumberName":"U-component_of_WINDS"},"data":[0,0,0,0,0,0,0,0,0,0,0,0,0,0,0,0,0,0,0,0,0,0,0,0,0,0,0,0,0,0,0,0,0,0,0,0,0,0,0,0,0,0,0,0,0,0,0,0,0,0,0,0,0,0,0,0,0,0,0.7551,0.7552,0,0.7611,0.7611,0.7612,0.7633,0.7632,0.7632,0.7632,0.7689,0.7691,0.7693,0,0,0,0,0,0,0,0,0,0,0,0,0,0.7452,0.7454,0.7551,0.7552,0.7553,0.7611,0.7611,0.7612,0.7633,0.7632,0.7632,0.7632,0.7689,0.7691,0.7693,0,0,0,0,0,0,0,0,0,0,0,0,0,0.7501,0.7454,0.7551,0.757,0.7572,0.761,0.7611,0.7612,0.7633,0.7632,0.7632,0.7632,0.7688,0.7691,0.7693,0.7716,0,0,0.7701,0.7702,0,0,0,0,0,0,0,0,0.7499,0.7505,0.7566,0.7569,0.7571,0.7614,0.7597,0.7647,0.7633,0.761,0.7632,0.7632,0.7664,0.7669,0.7681,0.7719,0.7721,0.7701,0.7703,0.7704,0.7705,0,0,0,0,0,0,0,0.7495,0.7503,0.7575,0.7567,0.757,0.7574,0.7581,0.7607,0.7638,0.7612,0.7613,0.762,0.7666,0.7678,0.7682,0.7722,0.7701,0.7704,0.7705,0.7706,0.7781,0.7781,0,0,0,0,0,0,0.7489,0.75,0.7573,0.7576,0.7534,0.7576,0.7584,0.7601,0.7638,0.7643,0.762,0.7621,0.7674,0.7679,0.7684,0.7713,0.7704,0.7706,0.7708,0.7781,0.7781,0.7781,0,0,0,0,0,0,0.7487,0.7495,0.757,0.7539,0.7548,0.7578,0.7597,0.7602,0.7614,0.7645,0.765,0.7628,0.7674,0.7681,0.7708,0.7715,0.7708,0.771,0.778,0.7781,0.7781,0.7771,0,0,0,0,0,0,0.7484,0.7494,0.7504,0.7539,0.755,0.7594,0.7597,0.7603,0.7619,0.7621,0.7653,0.7658,0.7674,0.7704,0.7711,0.7719,0.7712,0.7779,0.778,0.7781,0.7771,0.7771,0.7771,0,0,0,0,0,0.748,0.7498,0.7505,0.7513,0.7563,0.7594,0.7601,0.762,0.762,0.7629,0.7649,0.7657,0.7714,0.7707,0.7714,0.7723,0.7779,0.778,0.7781,0.777,0.7771,0.7771,0,0,0,0,0,0,0.7462,0.7503,0.7511,0.754,0.7564,0.7598,0.761,0.762,0.7643,0.7643,0.7665,0.7673,0.7698,0.7713,0.7705,0.7747,0.7747,0.7749,0.7736,0.7737,0.7737,0.7733,0.7714,0,0,0,0,0,0.7462,0.7486,0.7519,0.7542,0.7554,0.758,0.7594,0.7608,0.7632,0.7642,0.7663,0.7686,0.7709,0.7724,0.7747,0.7773,0.778,0.7783,0.7783,0.7783,0.7785,0.78,0.7801,0.7785,0.7785,0.7785,0,0,0.7461,0.7486,0.75,0.7539,0.7559,0.7582,0.7588,0.7612,0.7629,0.7645,0.7673,0.7689,0.7716,0.7743,0.7756,0.7757,0.7791,0.7785,0.7785,0.7786,0.7801,0.7803,0.7804,0.7785,0.7785,0.7785,0,0,0.7471,0.7493,0.7515,0.7535,0.7565,0.7583,0.7588,0.762,0.7632,0.7661,0.7674,0.7693,0.7732,0.7751,0.7766,0.7783,0.7791,0.779,0.7792,0.7806,0.7807,0.7808,0.7814,0.7816,0.7792,0.7792,0.7792,0,0.7466,0.7502,0.7524,0.7548,0.7564,0.7582,0.7603,0.7621,0.7657,0.7667,0.7668,0.7718,0.7737,0.7768,0.7773,0.7784,0.779,0.7786,0.7805,0.7807,0.7808,0.7814,0.7816,0.7791,0.7791,0.7791,0.7791,0,0.7494,0.7519,0.7532,0.7568,0.7586,0.7608,0.7632,0.7648,0.7659,0.7676,0.7704,0.7728,0.7756,0.7765,0.7776,0.7798,0.7797,0.7801,0.7801,0.7809,0.7815,0.7817,0.7791,0.7791,0.7791,0.7791,0,0,0.7494,0.7542,0.7547,0.7563,0.7598,0.7617,0.764,0.7668,0.7681,0.7705,0.7724,0.7757,0.7761,0.7777,0.779,0.7803,0.7815,0.7805,0.7806,0.7806,0.784,0.7836,0.7839,0.782,0.7821,0.7821,0.7837,0,0.7509,0.7552,0.7572,0.7605,0.7628,0.7645,0.7664,0.7687,0.7703,0.7724,0.7742,0.7765,0.7769,0.7779,0.7792,0.781,0.7822,0.781,0.7837,0.7838,0.783,0.7842,0.7838,0.7852,0.784,0.784,0.7841,0,0.7532,0.7557,0.7593,0.7625,0.7635,0.7653,0.7681,0.7701,0.7726,0.7737,0.7756,0.7769,0.7792,0.7791,0.7823,0.7814,0.7827,0.7838,0.7839,0.7842,0.784,0.7845,0.7857,0.7859,0.7844,0.7844,0.7844,0,0.7528,0.7571,0.7598,0.7611,0.765,0.7662,0.7678,0.7704,0.772,0.7743,0.7754,0.7779,0.7793,0.7813,0.7832,0.7829,0.7861,0.7862,0.787,0.787,0.7876,0.7875,0.7891,0.7885,0.7885,0.7885,0.7885,0,0.7542,0.7563,0.7597,0.7613,0.7637,0.766,0.7682,0.77,0.7723,0.7742,0.7758,0.7775,0.7799,0.782,0.7835,0.7858,0.7865,0.7873,0.7877,0.7872,0.7871,0.788,0.788,0.7885,0.7885,0.7885,0.7885,0,0.7541,0.7565,0.7596,0.763,0.7639,0.7655,0.7684,0.77,0.7718,0.7742,0.7749,0.7775,0.78,0.7821,0.7853,0.7864,0.7888,0.7893,0.788,0.7882,0.7889,0.7888,0.791,0.7914,0.7906,0.7906,0.7906,0,0.7549,0.7566,0.7602,0.7617,0.7634,0.7657,0.7674,0.7696,0.7713,0.7744,0.7756,0.7782,0.7804,0.7842,0.7864,0.7889,0.7894,0.79,0.7897,0.7892,0.7893,0.7892,0.7894,0.79,0.79,0.79,0.79,0,0.7559,0.757,0.7594,0.7622,0.7642,0.7665,0.7688,0.7699,0.7726,0.7743,0.7769,0.7786,0.782,0.7845,0.7872,0.7888,0.7898,0.7901,0.7904,0.7898,0.789,0.7895,0.788,0.79,0.79,0.79,0.79,0.79,0.7563,0.7578,0.7607,0.7633,0.7653,0.7674,0.7691,0.7711,0.7734,0.7764,0.7776,0.7802,0.7827,0.7865,0.788,0.7901,0.7902,0.7907,0.7908,0.7909,0.7908,0.7887,0.7906,0.7906,0.7906,0.7906,0.7906,0,0.7573,0.7593,0.7617,0.7649,0.767,0.7679,0.7705,0.7721,0.7745,0.7768,0.779,0.7819,0.7844,0.7868,0.7894,0.7905,0.7911,0.7911,0.791,0.7914,0.7905,0.79,0.7907,0.7907,0.7907,0.7907,0.7907,0.7907,0.7581,0.7609,0.7623,0.766,0.7679,0.7706,0.772,0.7739,0.7758,0.7791,0.7812,0.7828,0.7851,0.7879,0.7902,0.7908,0.7916,0.7916,0.7923,0.7915,0.7914,0.7914,0.7909,0.7918,0.7918,0.793,0.793,0.793]},{"header":{"parameterUnit":"m.s-1","parameterCategory":1,"la1":30.2991,"la2":30.254,"lo1":-89.0895,"lo2":-89.0444,"dy":0.0017,"dx":0.0017,"nx":28,"ny":28,"refTime":"2023-09-14T03:00:00:Z","depth":0,"parameterNumber":3,"parameterNumberName":"V-component_of_WINDS"},"data":[0,0,0,0,0,0,0,0,0,0,0,0,0,0,0,0,0,0,0,0,0,0,0,0,0,0,0,0,0,0,0,0,0,0,0,0,0,0,0,0,0,0,0,0,0,0,0,0,0,0,0,0,0,0,0,0,0,0,2.4909,2.491,0,2.4949,2.4949,2.495,2.4931,2.493,2.4929,2.4928,2.4965,2.4967,2.4969,0,0,0,0,0,0,0,0,0,0,0,0,0,2.4814,2.4815,2.4909,2.491,2.491,2.4949,2.4949,2.495,2.4931,2.493,2.4929,2.4928,2.4965,2.4967,2.4969,0,0,0,0,0,0,0,0,0,0,0,0,0,2.4854,2.4816,2.4909,2.4906,2.4906,2.4949,2.4949,2.495,2.4932,2.493,2.4929,2.4927,2.4964,2.4967,2.4969,2.5017,0,0,2.4978,2.4979,0,0,0,0,0,0,0,0,2.4852,2.4858,2.4906,2.4906,2.4906,2.4934,2.4929,2.4972,2.4932,2.4922,2.4928,2.4927,2.4956,2.4959,2.497,2.5019,2.502,2.4978,2.498,2.4981,2.4982,0,0,0,0,0,0,0,2.4849,2.4856,2.4925,2.4907,2.4907,2.4901,2.4905,2.4937,2.4946,2.4923,2.4921,2.4926,2.4955,2.4967,2.497,2.5021,2.4978,2.4981,2.4983,2.4984,2.5108,2.511,0,0,0,0,0,0,2.4847,2.4854,2.4924,2.4926,2.4875,2.4904,2.4909,2.4926,2.4946,2.4948,2.4928,2.4925,2.4963,2.4967,2.4972,2.5026,2.4981,2.4984,2.4986,2.5107,2.5108,2.511,0,0,0,0,0,0,2.4845,2.4853,2.4922,2.489,2.4898,2.4907,2.4927,2.4928,2.4939,2.495,2.4951,2.4938,2.4962,2.4968,2.5005,2.5027,2.4985,2.4988,2.5105,2.5107,2.5109,2.5138,0,0,0,0,0,0,2.4842,2.4853,2.4872,2.489,2.49,2.4957,2.4929,2.493,2.4945,2.4942,2.496,2.4961,2.4961,2.5001,2.5008,2.5031,2.499,2.5103,2.5106,2.5109,2.5135,2.5141,2.5146,0,0,0,0,0,2.4839,2.4878,2.4873,2.4882,2.4924,2.4958,2.4963,2.4963,2.4947,2.4965,2.4972,2.4961,2.5025,2.5005,2.5013,2.5037,2.5101,2.5105,2.5108,2.5132,2.5139,2.5146,0,0,0,0,0,0,2.4861,2.488,2.4875,2.4921,2.4938,2.4955,2.4978,2.4971,2.4992,2.4988,2.4986,2.4991,2.5029,2.5037,2.5015,2.5082,2.506,2.5065,2.5076,2.5083,2.5088,2.5084,2.4993,0,0,0,0,0,2.4871,2.4899,2.4914,2.4953,2.4962,2.4969,2.4983,2.4982,2.4999,2.5005,2.5015,2.503,2.5054,2.5069,2.5091,2.5137,2.5139,2.5156,2.5162,2.5167,2.517,2.5192,2.52,2.5122,2.5122,2.5122,0,0,2.4893,2.4907,2.4924,2.4958,2.4971,2.4997,2.4975,2.5004,2.5023,2.5009,2.5045,2.5053,2.507,2.5111,2.513,2.5119,2.5193,2.5171,2.5175,2.5176,2.5197,2.5204,2.5211,2.5124,2.5124,2.5123,0,0,2.4944,2.4959,2.4992,2.5006,2.5026,2.503,2.5038,2.5056,2.5061,2.5097,2.5087,2.5109,2.515,2.5162,2.5174,2.523,2.522,2.5237,2.5265,2.5287,2.5293,2.5298,2.5316,2.5323,2.5242,2.5242,2.5242,0,2.4968,2.5009,2.501,2.504,2.5054,2.5045,2.5077,2.509,2.5116,2.5125,2.5113,2.5163,2.5174,2.5217,2.5231,2.5241,2.5249,2.5234,2.5292,2.5298,2.5303,2.5319,2.5326,2.5243,2.5243,2.5243,2.5243,0,2.5035,2.5063,2.5088,2.5114,2.5131,2.5162,2.5167,2.5184,2.5181,2.5186,2.5222,2.5236,2.5259,2.527,2.5267,2.5312,2.5304,2.5293,2.5269,2.5312,2.5327,2.5334,2.5246,2.5245,2.5245,2.5244,0,0,2.51,2.5127,2.5135,2.5146,2.5168,2.5189,2.5219,2.5244,2.5257,2.5276,2.5299,2.5334,2.5323,2.5336,2.5335,2.5354,2.5395,2.534,2.534,2.5347,2.5442,2.5449,2.5457,2.5389,2.5391,2.5392,2.544,0,2.5151,2.5205,2.5207,2.5255,2.528,2.5271,2.5297,2.5312,2.5318,2.5339,2.5345,2.5368,2.5353,2.5361,2.538,2.5386,2.5413,2.5383,2.5409,2.541,2.5402,2.5465,2.5473,2.5518,2.5446,2.5447,2.5448,0,2.5218,2.5239,2.529,2.5307,2.5317,2.534,2.5362,2.5383,2.5399,2.5402,2.5417,2.5413,2.5441,2.542,2.5458,2.5437,2.5448,2.5453,2.5455,2.5455,2.543,2.5465,2.5532,2.5538,2.5458,2.5457,2.5457,0,2.5257,2.5298,2.5333,2.5343,2.5365,2.5381,2.539,2.5405,2.5419,2.5438,2.5447,2.5469,2.548,2.5497,2.5498,2.5482,2.5536,2.5514,2.5537,2.5537,2.5546,2.5545,2.5614,2.5558,2.5558,2.5558,2.5557,0,2.5312,2.5343,2.5351,2.5372,2.5406,2.5408,2.5441,2.5449,2.5462,2.5484,2.5478,2.5498,2.55,2.552,2.5521,2.5552,2.5557,2.5559,2.5558,2.5558,2.5557,2.5563,2.5559,2.5559,2.5559,2.5559,2.5558,0,2.536,2.5367,2.5405,2.5422,2.5427,2.5451,2.5465,2.5484,2.549,2.5517,2.5524,2.5532,2.5555,2.5559,2.5586,2.5587,2.5623,2.562,2.5617,2.5616,2.5637,2.5634,2.571,2.5719,2.5659,2.566,2.566,0,2.5394,2.5418,2.5438,2.5452,2.5463,2.5486,2.5501,2.5503,2.5518,2.5539,2.5555,2.5579,2.5597,2.5635,2.5642,2.5662,2.5659,2.5684,2.5662,2.566,2.5656,2.5654,2.5655,2.5687,2.5688,2.5688,2.5689,0,2.5452,2.5454,2.5476,2.5499,2.5517,2.5535,2.5551,2.5563,2.5568,2.5585,2.5609,2.5624,2.5652,2.5674,2.5694,2.5702,2.5696,2.5696,2.5702,2.5701,2.5697,2.5697,2.5626,2.5694,2.5693,2.5693,2.5693,2.5693,2.5492,2.5512,2.5529,2.5553,2.5566,2.5582,2.5601,2.5609,2.563,2.5653,2.5654,2.568,2.5695,2.5722,2.5731,2.5751,2.5742,2.5751,2.5753,2.5755,2.5756,2.5696,2.5755,2.5754,2.5754,2.5754,2.5754,0,2.5548,2.5559,2.5581,2.5605,2.5623,2.5618,2.5636,2.5651,2.5675,2.569,2.5708,2.5735,2.5757,2.5766,2.5787,2.5801,2.5798,2.5806,2.5803,2.5805,2.5763,2.5755,2.5807,2.5807,2.5807,2.5807,2.5807,2.5807,2.5579,2.5612,2.5616,2.5654,2.5665,2.5691,2.5701,2.5715,2.5727,2.5758,2.5776,2.5783,2.5795,2.5817,2.5836,2.5838,2.5845,2.5853,2.5854,2.5814,2.5808,2.5803,2.5795,2.5855,2.5855,2.5894,2.5894,2.5895]}]]